EW9167 Weather Reports


Display with metric or nautical units.
time (UTC)temp
F
wind
direction
speed
MPH
gust
MPH
rain 1hr
in
rain 24hr
in
rain mn
in
humidity
%
barometer
mb
20260510174049 83 213 1.0 7.0 0.00 0.00 0.00 48 1015.0
20260510173048 82 255 0.0 4.0 0.00 0.00 0.00 45 1015.0
20260510172049 82 251 0.0 6.0 0.00 0.00 0.00 45 1015.0
20260510171046 81 219 1.0 4.0 0.00 0.00 0.00 48 1015.0
20260510170044 80 162 0.0 4.0 0.00 0.00 0.00 52 1015.0
20260510165043 79 348 2.0 5.0 0.00 0.00 0.00 53 1015.0
20260510164041 79 222 1.0 5.0 0.00 0.00 0.00 52 1015.0
20260510163039 79 120 0.0 5.0 0.00 0.00 0.00 54 1015.0
20260510162038 79 183 3.0 4.0 0.00 0.00 0.00 55 1015.0
20260510161522 77 139 0.0 4.0 0.00 0.00 0.00 59 1015.0
20260510160516 77 195 0.0 6.0 0.00 0.00 0.00 54 1015.0
20260510155034 77 146 3.0 4.0 0.00 0.00 0.00 58 1015.0
20260510154036 76 205 0.0 4.0 0.00 0.00 0.00 58 1015.0
20260510153035 76 205 1.0 3.0 0.00 0.00 0.00 60 1015.0
20260510152035 74 180 1.0 5.0 0.00 0.00 0.00 60 1015.0
20260510151033 74 191 2.0 3.0 0.00 0.00 0.00 62 1015.3
20260510150030 73 145 2.0 4.0 0.00 0.00 0.00 62 1015.3
20260510145509 71 151 2.0 4.0 0.00 0.00 0.00 64 1015.3
20260510144032 70 127 0.0 3.0 0.00 0.00 0.00 66 1015.3
20260510143030 69 97 0.0 4.0 0.00 0.00 0.00 66 1015.6
20260510142030 69 127 0.0 4.0 0.00 0.00 0.00 69 1015.3
20260510141035 68 238 1.0 4.0 0.00 0.00 0.00 74 1015.3
20260510140035 67 194 1.0 3.0 0.00 0.00 0.00 73 1015.3
20260510135032 66 178 2.0 4.0 0.00 0.00 0.00 73 1015.3
20260510134034 65 145 2.0 4.0 0.00 0.00 0.00 77 1015.6
20260510133032 64 134 2.0 2.0 0.00 0.00 0.00 77 1015.3
20260510132032 63 126 0.0 2.0 0.00 0.00 0.00 80 1015.3
20260510131035 62 154 1.0 2.0 0.00 0.00 0.00 82 1015.6
20260510130037 62 126 2.0 3.0 0.00 0.00 0.00 83 1015.3
20260510125032 59 109 1.0 2.0 0.00 0.00 0.00 85 1015.3
20260510124032 59 179 2.0 2.0 0.00 0.00 0.00 86 1015.3
20260510123514 60 124 0.0 3.0 0.00 0.00 0.00 89 1015.3
20260510122032 58 126 2.0 2.0 0.00 0.00 0.00 90 1015.0
20260510121032 56 137 1.0 3.0 0.00 0.00 0.00 92 1015.3
20260510120034 56 130 2.0 2.0 0.00 0.00 0.00 92 1014.6
20260510115034 56 147 1.0 2.0 0.00 0.00 0.00 93 1015.3
20260510114033 55 125 2.0 2.0 0.00 0.00 0.00 93 1014.6
20260510113032 54 130 0.0 2.0 0.00 0.00 0.00 93 1014.6
20260510112036 54 160 0.0 2.0 0.00 0.00 0.00 94 1014.6
20260510111035 53 133 2.0 2.0 0.00 0.00 0.00 94 1014.6
20260510110507 52 139 1.0 2.0 0.00 0.00 0.00 94 1014.0
20260510110242 53 130 1.0 2.0 0.00 0.00 0.00 94 1014.6
20260510104034 52 131 2.0 2.0 0.00 0.00 0.00 93 1014.0
20260510103031 51 62 0.0 2.0 0.00 0.00 0.00 93 1014.0
20260510102031 51 118 2.0 2.0 0.00 0.00 0.00 93 1014.0
20260510101030 51 130 2.0 2.0 0.00 0.00 0.00 93 1014.0
20260510100031 51 129 1.0 3.0 0.00 0.00 0.00 93 1014.0
20260510095032 51 104 2.0 4.0 0.00 0.00 0.00 93 1014.0
20260510094032 51 128 2.0 3.0 0.00 0.00 0.00 93 1014.0
20260510093034 51 89 0.0 3.0 0.00 0.00 0.00 93 1013.3
20260510092032 50 127 2.0 3.0 0.00 0.00 0.00 93 1013.6
20260510091032 49 116 2.0 4.0 0.00 0.00 0.00 93 1013.6
20260510090035 48 87 2.0 5.0 0.00 0.00 0.00 92 1013.6
20260510085034 48 125 2.0 2.0 0.00 0.00 0.00 92 1012.9
20260510084036 48 124 2.0 3.0 0.00 0.00 0.00 92 1012.9
20260510083519 48 144 2.0 3.0 0.00 0.00 0.00 92 1012.9
20260510082032 48 118 2.0 2.0 0.00 0.00 0.00 92 1012.9
20260510081509 48 124 2.0 3.0 0.00 0.00 0.00 92 1012.9
20260510080035 48 136 2.0 2.0 0.00 0.00 0.00 92 1012.6
20260510075031 49 117 2.0 3.0 0.00 0.00 0.00 92 1012.6
20260510074032 48 99 0.0 2.0 0.00 0.00 0.00 92 1012.9
20260510073033 47 100 1.0 2.0 0.00 0.00 0.00 91 1012.6
20260510072036 47 128 2.0 2.0 0.00 0.00 0.00 91 1012.3
20260510071035 47 124 2.0 2.0 0.00 0.00 0.00 91 1012.3
20260510070038 48 126 1.0 2.0 0.00 0.00 0.00 91 1012.3
20260510065033 48 127 2.0 2.0 0.00 0.00 0.00 91 1012.3
20260510064033 48 118 1.0 2.0 0.00 0.00 0.00 91 1012.3
20260510063030 48 116 2.0 2.0 0.00 0.00 0.00 91 1012.6
20260510062030 48 132 2.0 3.0 0.00 0.00 0.00 91 1012.6
20260510061028 48 126 2.0 3.0 0.00 0.00 0.00 91 1012.6
20260510060027 48 135 2.0 2.0 0.00 0.00 0.00 90 1012.6
20260510055027 48 121 2.0 2.0 0.00 0.00 0.00 90 1012.6
20260510054028 48 127 2.0 2.0 0.00 0.00 0.00 90 1012.6
20260510053040 49 125 2.0 2.0 0.00 0.00 0.00 90 1012.6
20260510052457 49 113 2.0 2.0 0.00 0.00 0.00 90 1012.6
20260510051023 49 127 1.0 2.0 0.00 0.00 0.00 90 1012.9
20260510050029 49 117 2.0 2.0 0.00 0.00 0.00 90 1012.9
20260510045020 49 120 1.0 2.0 0.00 0.00 0.00 89 1013.3
20260510044921 49 124 1.0 2.0 0.00 0.00 0.00 89 1013.3
20260510043017 49 121 2.0 2.0 0.00 0.00 0.00 89 1012.9
20260510042448 49 114 2.0 2.0 0.00 0.00 0.00 89 1012.9
20260510041017 50 127 2.0 2.0 0.00 0.00 0.00 89 1012.9
20260510040026 50 123 2.0 3.0 0.00 0.00 0.00 89 1012.9
20260510035004 50 109 1.0 2.0 0.00 0.00 0.00 88 1013.3
20260510034004 51 133 2.0 2.0 0.00 0.00 0.00 88 1012.9
20260510033006 51 126 2.0 2.0 0.00 0.00 0.00 88 1012.9
20260510032006 51 118 2.0 2.0 0.00 0.00 0.00 88 1012.6
20260510031451 51 129 2.0 2.0 0.00 0.00 0.00 88 1012.9
20260510030014 52 125 2.0 2.0 0.00 0.00 0.00 87 1012.6
20260510025006 52 134 2.0 2.0 0.00 0.00 0.00 87 1012.6
20260510024003 53 115 2.0 2.0 0.00 0.00 0.00 87 1012.6
20260510023442 53 123 0.0 2.0 0.00 0.00 0.00 86 1012.6
20260510022003 53 117 1.0 2.0 0.00 0.00 0.00 86 1012.6
20260510021002 53 124 2.0 2.0 0.00 0.00 0.00 86 1012.6
20260510020509 53 129 2.0 2.0 0.00 0.00 0.00 86 1012.6
20260510015436 53 119 0.0 2.0 0.00 0.00 0.00 85 1012.6
20260510014002 53 104 1.0 2.0 0.00 0.00 0.00 85 1012.3
20260510013008 54 116 2.0 2.0 0.00 0.00 0.00 84 1012.3
20260510012005 54 114 1.0 2.0 0.00 0.00 0.00 84 1012.3
20260510011004 54 119 1.0 2.0 0.00 0.00 0.00 84 1012.6
20260510010502 55 115 1.0 2.0 0.00 0.00 0.00 83 1012.3
20260510005004 55 131 1.0 2.0 0.00 0.00 0.00 82 1012.3
20260510004006 55 133 2.0 2.0 0.00 0.00 0.00 82 1011.9
20260510003005 55 128 2.0 2.0 0.00 0.00 0.00 81 1012.3
20260510002004 56 129 2.0 2.0 0.00 0.00 0.00 80 1012.3
20260510001005 57 117 1.0 2.0 0.00 0.00 0.00 79 1012.3
20260510000509 58 129 2.0 2.0 0.00 0.00 0.00 78 1011.9
20260509235005 58 123 2.0 2.0 0.00 0.00 0.00 77 1012.3
20260509234004 59 142 2.0 2.0 0.00 0.00 0.00 76 1012.3
20260509233443 59 127 2.0 2.0 0.00 0.00 0.00 76 1012.3
20260509232005 60 125 1.0 2.0 0.00 0.00 0.00 75 1012.3
20260509231004 61 136 2.0 2.0 0.00 0.00 0.00 75 1011.9
20260509230021 61 120 2.0 3.0 0.00 0.00 0.00 74 1011.9
20260509225005 61 135 2.0 2.0 0.00 0.00 0.00 74 1011.9
20260509224006 61 125 2.0 2.0 0.00 0.00 0.00 74 1011.9
20260509223006 61 155 1.0 2.0 0.00 0.00 0.00 73 1011.9
20260509222004 61 125 1.0 2.0 0.00 0.00 0.00 74 1011.9
20260509221009 61 125 2.0 2.0 0.00 0.00 0.00 73 1011.9
20260509220004 61 142 0.0 2.0 0.00 0.00 0.00 73 1012.3
20260509215000 61 132 1.0 3.0 0.00 0.00 0.00 73 1012.3
20260509213959 62 116 1.0 2.0 0.00 0.00 0.00 73 1012.3
20260509212957 62 124 0.0 2.0 0.00 0.00 0.00 72 1012.3
20260509212441 62 145 1.0 2.0 0.00 0.00 0.00 71 1012.3
20260509210955 63 130 0.0 2.0 0.00 0.00 0.00 70 1011.9
20260509205954 63 125 0.0 2.0 0.00 0.00 0.00 69 1012.3
20260509204952 64 58 1.0 2.0 0.00 0.00 0.00 68 1012.3
20260509204437 65 124 1.0 2.0 0.00 0.00 0.00 67 1011.9
20260509202951 67 38 0.0 3.0 0.00 0.00 0.00 64 1011.9
20260509201949 65 164 1.0 2.0 0.00 0.00 0.00 68 1011.9
20260509200948 63 127 2.0 3.0 0.00 0.00 0.00 69 1011.9
20260509195946 63 36 2.0 4.0 0.00 0.00 0.00 68 1011.9
20260509194946 64 83 1.0 4.0 0.00 0.00 0.00 68 1011.9
20260509193949 63 18 2.0 4.0 0.00 0.00 0.00 68 1011.9
20260509192947 63 128 0.0 5.0 0.00 0.00 0.00 67 1012.3
20260509191945 64 146 1.0 4.0 0.00 0.00 0.00 66 1012.3
20260509190940 64 91 1.0 8.0 0.00 0.00 0.00 66 1012.6
20260509185941 64 52 2.0 5.0 0.00 0.00 0.00 67 1012.6
20260509184938 64 118 0.0 4.0 0.00 0.00 0.00 67 1012.9
20260509183937 64 125 2.0 4.0 0.00 0.00 0.00 68 1012.6
20260509182936 64 122 3.0 4.0 0.00 0.00 0.00 66 1012.6
20260509181932 65 10 1.0 5.0 0.00 0.00 0.00 65 1012.6
20260509181407 65 29 2.0 3.0 0.00 0.00 0.00 65 1012.6
20260509175935 65 56 0.0 3.0 0.00 0.00 0.00 65 1012.6
20260509174933 65 33 2.0 3.0 0.00 0.00 0.00 65 1012.6